[[{"header":{"parameterUnit":"m.s-1","parameterCategory":1,"la1":30.2991,"la2":30.254,"lo1":-89.0895,"lo2":-89.0444,"dy":0.0017,"dx":0.0017,"nx":28,"ny":28,"refTime":"2025-08-24T03:00:00:Z","depth":0,"parameterNumber":2,"parameterNumberName":"U-component_of_WINDS"},"data":[0,0,0,0,0,0,0,0,0,0,0,0,0,0,0,0,0,0,0,0,0,0,0,0,0,0,0,0,0,0,0,0,0,0,0,0,0,0,0,0,0,0,0,0,0,0,0,0,0,0,0,0,0,0,0,0,0,0,3.2585,3.2587,0,3.2742,3.2744,3.2746,3.2691,3.2688,3.2684,3.2681,3.2848,3.2855,3.2863,0,0,0,0,0,0,0,0,0,0,0,0,0,3.2245,3.2251,3.2585,3.2587,3.2589,3.2742,3.2744,3.2746,3.2692,3.2688,3.2684,3.268,3.2845,3.2855,3.2864,0,0,0,0,0,0,0,0,0,0,0,0,0,3.2396,3.2253,3.2585,3.258,3.2581,3.2741,3.2744,3.2747,3.2693,3.2688,3.2682,3.2678,3.2842,3.2854,3.2865,3.3041,0,0,3.29,3.2905,0,0,0,0,0,0,0,0,3.2388,3.2409,3.2579,3.2581,3.2583,3.2692,3.2685,3.2846,3.2694,3.2651,3.2681,3.2675,3.2801,3.2815,3.2856,3.3048,3.3056,3.2901,3.2908,3.2913,3.2916,0,0,0,0,0,0,0,3.2377,3.2402,3.2647,3.2582,3.2584,3.2572,3.2588,3.2715,3.2753,3.2654,3.2651,3.267,3.2801,3.2845,3.286,3.3058,3.2901,3.2911,3.2918,3.2923,3.3401,3.3406,0,0,0,0,0,0,3.2365,3.2393,3.2642,3.2652,3.247,3.2583,3.26,3.2662,3.2752,3.276,3.2674,3.2666,3.2828,3.2846,3.2866,3.3075,3.2913,3.2924,3.2931,3.3395,3.3402,3.3408,0,0,0,0,0,0,3.2358,3.2388,3.2636,3.2522,3.2553,3.2594,3.2664,3.2668,3.2712,3.2766,3.2774,3.2712,3.2825,3.2849,3.2997,3.308,3.2929,3.294,3.3388,3.3397,3.3405,3.3496,0,0,0,0,0,0,3.2348,3.2385,3.2451,3.2524,3.2559,3.2763,3.2669,3.2675,3.2732,3.2723,3.2804,3.2813,3.2823,3.298,3.3008,3.3093,3.2949,3.3381,3.3392,3.3402,3.3486,3.3507,3.3525,0,0,0,0,0,3.2336,3.2472,3.2455,3.2485,3.2642,3.2768,3.2788,3.2795,3.2739,3.2806,3.284,3.281,3.3067,3.2995,3.3027,3.3117,3.3376,3.3389,3.3402,3.3477,3.3503,3.3525,0,0,0,0,0,0,3.2411,3.2482,3.2463,3.2626,3.2691,3.2758,3.2843,3.2822,3.2906,3.2895,3.2903,3.2921,3.3072,3.311,3.3029,3.3291,3.3213,3.3233,3.326,3.3285,3.3304,3.3291,3.2958,0,0,0,0,0,3.2446,3.2541,3.2599,3.2737,3.277,3.2802,3.2857,3.2856,3.2925,3.2953,3.2998,3.3068,3.3163,3.3227,3.3319,3.3492,3.3509,3.357,3.3589,3.3605,3.3621,3.3715,3.3742,3.3451,3.3451,3.3451,0,0,3.252,3.257,3.263,3.2753,3.2803,3.2903,3.2825,3.2934,3.3008,3.297,3.311,3.3147,3.3225,3.3385,3.3459,3.3421,3.3706,3.3622,3.3634,3.3642,3.3731,3.3758,3.3783,3.346,3.3458,3.3457,0,0,3.2704,3.2753,3.2872,3.2924,3.3,3.302,3.3049,3.312,3.3141,3.3282,3.3255,3.3345,3.3511,3.3567,3.3617,3.3823,3.3798,3.3854,3.3955,3.4045,3.4068,3.4088,3.416,3.4186,3.387,3.3871,3.3871,0,3.2787,3.2933,3.2937,3.3047,3.3102,3.3071,3.3192,3.3243,3.3347,3.3386,3.3343,3.3549,3.36,3.3772,3.3822,3.3865,3.3898,3.3843,3.4064,3.4085,3.4104,3.4172,3.4199,3.3877,3.3876,3.3875,3.3875,0,3.303,3.3132,3.322,3.3317,3.3383,3.3499,3.3521,3.3587,3.3582,3.3607,3.3751,3.381,3.3912,3.3954,3.3951,3.4127,3.4101,3.4061,3.3983,3.4137,3.4201,3.4228,3.3885,3.3883,3.3881,3.388,0,0,3.3263,3.3361,3.3393,3.3436,3.3519,3.3599,3.3714,3.3812,3.3867,3.3941,3.4037,3.4178,3.4141,3.4199,3.4202,3.4282,3.4439,3.4233,3.4235,3.4267,3.4634,3.4661,3.4691,3.4424,3.4429,3.4433,3.4627,0,3.3452,3.365,3.3657,3.3839,3.3933,3.3906,3.4006,3.4068,3.4095,3.4181,3.4211,3.431,3.4255,3.4289,3.4368,3.4403,3.4512,3.439,3.4513,3.4518,3.4491,3.4725,3.4754,3.4933,3.4652,3.4656,3.4659,0,3.3698,3.3776,3.3966,3.4034,3.4074,3.4163,3.4253,3.4335,3.4406,3.442,3.4483,3.4475,3.4594,3.4514,3.4677,3.4593,3.4645,3.467,3.4678,3.4687,3.4596,3.4738,3.4991,3.5017,3.4699,3.4696,3.4693,0,3.3846,3.3999,3.4132,3.4171,3.4254,3.4317,3.4355,3.442,3.4479,3.4559,3.4596,3.469,3.4741,3.4814,3.4832,3.4772,3.4995,3.4917,3.501,3.5009,3.5055,3.5052,3.5317,3.5094,3.5093,3.5093,3.5092,0,3.4054,3.4171,3.4199,3.4281,3.4411,3.442,3.455,3.4584,3.4642,3.4731,3.4715,3.4799,3.4818,3.4907,3.4922,3.5054,3.5078,3.5093,3.5095,3.5093,3.509,3.5124,3.5111,3.51,3.5098,3.5097,3.5096,0,3.4239,3.4263,3.4406,3.4473,3.4492,3.4586,3.4643,3.4723,3.4748,3.486,3.4887,3.4928,3.5031,3.5056,3.518,3.519,3.5346,3.5338,3.5321,3.5319,3.541,3.54,3.5704,3.5744,3.5497,3.5499,3.5501,0,3.4369,3.4458,3.4534,3.4591,3.4631,3.4724,3.4782,3.4795,3.4857,3.4944,3.5013,3.5114,3.5195,3.5361,3.5403,3.5497,3.549,3.559,3.5504,3.5498,3.5488,3.5481,3.5489,3.5605,3.5608,3.561,3.5612,0,3.4595,3.4603,3.4686,3.4775,3.4845,3.4916,3.4984,3.5032,3.5055,3.5126,3.5229,3.5292,3.5418,3.5518,3.5613,3.5654,3.5637,3.5639,3.5665,3.5662,3.5647,3.5654,3.5362,3.5631,3.5629,3.5628,3.5627,3.5626,3.4755,3.4832,3.4897,3.4991,3.5043,3.5107,3.5183,3.5218,3.5304,3.5405,3.5409,3.5522,3.5591,3.5716,3.5763,3.5853,3.5822,3.5861,3.587,3.5878,3.5885,3.5635,3.5871,3.587,3.587,3.5869,3.5869,0,3.4978,3.5018,3.5105,3.5199,3.5273,3.525,3.5324,3.5388,3.5487,3.5552,3.5631,3.5751,3.5848,3.5897,3.5994,3.6056,3.6051,3.6081,3.6075,3.6084,3.5908,3.5874,3.6083,3.6083,3.6083,3.6083,3.6083,3.6083,3.5103,3.5231,3.5246,3.5401,3.5441,3.555,3.5594,3.5653,3.5704,3.5837,3.5917,3.5948,3.6007,3.6108,3.6196,3.6208,3.6244,3.6277,3.6285,3.6119,3.6097,3.6076,3.6044,3.6286,3.6286,3.6454,3.6455,3.6457]},{"header":{"parameterUnit":"m.s-1","parameterCategory":1,"la1":30.2991,"la2":30.254,"lo1":-89.0895,"lo2":-89.0444,"dy":0.0017,"dx":0.0017,"nx":28,"ny":28,"refTime":"2025-08-24T03:00:00:Z","depth":0,"parameterNumber":3,"parameterNumberName":"V-component_of_WINDS"},"data":[0,0,0,0,0,0,0,0,0,0,0,0,0,0,0,0,0,0,0,0,0,0,0,0,0,0,0,0,0,0,0,0,0,0,0,0,0,0,0,0,0,0,0,0,0,0,0,0,0,0,0,0,0,0,0,0,0,0,2.3771,2.3772,0,2.3924,2.3926,2.3928,2.393,2.3928,2.3926,2.3925,2.4081,2.4087,2.4092,0,0,0,0,0,0,0,0,0,0,0,0,0,2.3478,2.3483,2.377,2.3772,2.3774,2.3924,2.3926,2.3928,2.3931,2.3928,2.3926,2.3924,2.4079,2.4086,2.4093,0,0,0,0,0,0,0,0,0,0,0,0,0,2.3616,2.3485,2.377,2.3794,2.3797,2.3924,2.3926,2.3929,2.3931,2.3928,2.3925,2.3923,2.4076,2.4085,2.4094,2.4207,0,0,2.4121,2.4125,0,0,0,0,0,0,0,0,2.3608,2.3626,2.3788,2.3792,2.3796,2.3905,2.388,2.4022,2.3932,2.388,2.3925,2.3921,2.4025,2.4038,2.4073,2.4214,2.4221,2.4122,2.4127,2.4131,2.4134,0,0,0,0,0,0,0,2.3598,2.362,2.3831,2.3791,2.3796,2.3796,2.3813,2.3907,2.3967,2.3885,2.3885,2.3903,2.4026,2.4064,2.4076,2.4223,2.4122,2.413,2.4135,2.4139,2.4467,2.4471,0,0,0,0,0,0,2.3584,2.3612,2.3826,2.3836,2.3693,2.3804,2.3822,2.3873,2.3966,2.3977,2.3906,2.3903,2.405,2.4066,2.4082,2.4223,2.4131,2.414,2.4145,2.4464,2.4468,2.4472,0,0,0,0,0,0,2.3578,2.3603,2.382,2.3724,2.3752,2.3812,2.3869,2.3878,2.3916,2.3982,2.3992,2.3934,2.4049,2.4069,2.4177,2.4228,2.4144,2.4152,2.446,2.4465,2.447,2.4504,0,0,0,0,0,0,2.3569,2.3601,2.3645,2.3725,2.3757,2.3913,2.3872,2.3883,2.3931,2.3929,2.4011,2.4021,2.4048,2.4163,2.4185,2.4239,2.4159,2.4456,2.4462,2.4468,2.4498,2.4509,2.4518,0,0,0,0,0,2.3559,2.3647,2.3647,2.3673,2.3813,2.3916,2.3934,2.3963,2.3935,2.398,2.4023,2.4019,2.4218,2.4174,2.4199,2.4256,2.4453,2.4461,2.4468,2.4494,2.4507,2.4518,0,0,0,0,0,0,2.3571,2.3658,2.3659,2.3776,2.3839,2.3916,2.3973,2.3976,2.4047,2.4042,2.4075,2.4093,2.42,2.4238,2.4188,2.4371,2.4332,2.4345,2.4343,2.4356,2.4366,2.4356,2.4166,0,0,0,0,0,2.3587,2.3664,2.3736,2.3832,2.3863,2.3913,2.3959,2.3976,2.4042,2.4068,2.4118,2.4182,2.4259,2.4309,2.4384,2.4503,2.4521,2.4554,2.4564,2.4572,2.4584,2.4652,2.4668,2.4497,2.4497,2.4496,0,0,2.3622,2.3679,2.3725,2.3836,2.3886,2.3965,2.3935,2.4019,2.4078,2.408,2.4186,2.4225,2.4298,2.4412,2.4465,2.4447,2.4635,2.4582,2.4588,2.4595,2.4661,2.4677,2.4692,2.4502,2.4501,2.45,0,0,2.3726,2.3776,2.3863,2.3914,2.3991,2.4024,2.4044,2.4122,2.4148,2.4254,2.4258,2.4328,2.4459,2.4512,2.4556,2.468,2.468,2.4703,2.4757,2.4823,2.4837,2.4849,2.4896,2.4912,2.4714,2.4714,2.4714,0,2.376,2.3879,2.3907,2.3992,2.4042,2.4047,2.4136,2.4184,2.4281,2.4315,2.4293,2.446,2.4509,2.4637,2.4668,2.4702,2.4728,2.4695,2.4832,2.4845,2.4857,2.4902,2.4919,2.4716,2.4716,2.4716,2.4716,0,2.3917,2.4,2.406,2.4155,2.4211,2.4297,2.4339,2.4391,2.4403,2.4438,2.4546,2.4606,2.4693,2.4724,2.4736,2.4854,2.4841,2.4825,2.4787,2.4875,2.4918,2.4935,2.472,2.4719,2.4718,2.4718,0,0,2.4035,2.4145,2.4167,2.4211,2.4296,2.436,2.4446,2.4533,2.4579,2.4644,2.4719,2.483,2.4817,2.4867,2.4884,2.4942,2.5039,2.4919,2.4922,2.4942,2.5176,2.5189,2.5209,2.5038,2.5042,2.5044,2.517,0,2.4151,2.4306,2.4334,2.4469,2.4547,2.4553,2.4629,2.4689,2.4723,2.4794,2.4831,2.4911,2.4886,2.4916,2.4973,2.5015,2.5087,2.5006,2.5109,2.5113,2.5094,2.5231,2.5245,2.5361,2.5187,2.519,2.5192,0,2.4307,2.4378,2.4522,2.4598,2.4631,2.4699,2.4781,2.4848,2.4916,2.4937,2.4993,2.5005,2.5095,2.505,2.5176,2.5121,2.5164,2.5191,2.5196,2.521,2.516,2.525,2.5399,2.5417,2.5218,2.5216,2.5214,0,2.4382,2.4514,2.4617,2.4654,2.4744,2.4792,2.4832,2.4898,2.4948,2.5019,2.5053,2.5133,2.5177,2.5239,2.5272,2.5236,2.5396,2.5354,2.5418,2.5417,2.5454,2.5452,2.5614,2.5476,2.5476,2.5476,2.5475,0,2.451,2.4598,2.4653,2.4717,2.4816,2.4847,2.4944,2.4983,2.5041,2.5113,2.5122,2.5189,2.5227,2.5299,2.5325,2.5427,2.5446,2.5466,2.5473,2.5468,2.5465,2.5499,2.5493,2.548,2.5479,2.5478,2.5478,0,2.4613,2.4652,2.4766,2.4842,2.4863,2.4933,2.4999,2.5061,2.5095,2.5186,2.5209,2.5262,2.5348,2.5386,2.5491,2.5509,2.5626,2.5625,2.5603,2.5606,2.5669,2.5664,2.5862,2.5891,2.573,2.5732,2.5733,0,2.4693,2.4762,2.4845,2.4895,2.4936,2.5014,2.5066,2.5099,2.5152,2.5236,2.5289,2.5375,2.5446,2.5583,2.5631,2.5712,2.5715,2.5779,2.5728,2.5721,2.572,2.5717,2.5725,2.5789,2.5791,2.5792,2.5793,0,2.4833,2.485,2.4924,2.5007,2.5068,2.5134,2.5199,2.5238,2.528,2.534,2.5429,2.5484,2.5592,2.5679,2.5763,2.5804,2.5807,2.5808,2.5828,2.5826,2.5812,2.5823,2.5632,2.5805,2.5804,2.5803,2.5802,2.5802,2.493,2.4992,2.5061,2.5144,2.5196,2.5256,2.5319,2.5361,2.5436,2.5527,2.5541,2.5636,2.5703,2.5817,2.5861,2.5936,2.592,2.5948,2.5956,2.5963,2.5969,2.5797,2.5951,2.595,2.595,2.595,2.595,0,2.5074,2.5118,2.5194,2.5285,2.535,2.5346,2.5417,2.5473,2.5557,2.5619,2.5689,2.5792,2.5875,2.593,2.6014,2.6064,2.6068,2.6086,2.6084,2.6094,2.5976,2.5952,2.6081,2.6081,2.6081,2.6081,2.6081,2.6081,2.5156,2.5262,2.5286,2.5417,2.5461,2.5555,2.5596,2.5652,2.5703,2.5817,2.5887,2.5921,2.5981,2.607,2.6147,2.6161,2.6193,2.6213,2.6226,2.6115,2.6102,2.6089,2.6067,2.6218,2.6219,2.6338,2.6339,2.634]}]]